Location: Samoth
(37.3328°N, 88.7876°W)
Time: 11:39:26
(UTC+00:00)

Cosmos 1340 - Pass Details

Date: 29 October 2020
Orbit: 501 x 504 km, 81.2° (Epoch: 04 December)

Event Time Altitude Azimuth Distance (km) Brightness Sun altitude
Rises 23:42:09 0° 356° (N) 2,612 6.2 -9.0°
Reaches altitude 10° 23:44:19 10° 0° (N) 1,724 5.2 -9.4°
Maximum altitude 23:48:02 55° 79° (E) 611 2.7 -10.2°
Drops below altitude 10° 23:51:44 10° 159° (SSE) 1,710 5.2 -10.9°
Sets 23:53:52 0° 163° (SSE) 2,590 6.2 -11.3°
